sat.trackr.live / text

‹ back to catalog

STARLINK-35137

NORAD 65686 · 2025-212L

PAYLOAD ACTIVE UNKNOWN

§ Identity

Operator
Country
US
Launch date
2025-09-21
Launch site
AFETR
Launch vehicle
Mass (kg)
RCS (m²)

Purposes: comms

External: N2YO · Heavens-Above · Gunter

§ Orbital elements

Epoch: 2026-09-20T22:17:46.426848Z

Period
93.85 min
Inclination
53.1610°
Eccentricity
0.0002245
Mean motion
15.34396656 rev/d
Perigee alt
461.2 km
Apogee alt
464.2 km
Semi-major
6,840.9 km
B*
5.1784e-4
RAAN
145.4105°
Arg perigee
83.3811°
Mean anomaly
276.7448°
Rev number
5,727

§ Raw data

STARLINK-351371 65686U 25212L   26263.92900957  .00017158  00000+0  51784-3 0  99922 65686  53.1610 145.4105 0002245  83.3811 276.7448 15.34396656 57273

JSON: /api/v1/satellites/65686 · /tle

For live sub-satellite position, see the globe view (requires WebGL).

§ Visibility from observer

Set your observer location to see the next 7 days of passes ≥ 10°. The values pass through the URL so the page stays shareable.

No JS? Fill the form by hand. The geolocation button needs JavaScript.